Jasper, TX

7:22 PM CDT on September 29, 2016 (GMT -0500)
Jasper County-Bell

Weather History for KJAS - December, 2012

Change the Weather History Date:

Friday, December 21, 2012

  Actual Average (KLFK) Record (KLFK)
Temperature  
Mean Temperature 45 °F 49 °F  
Max Temperature 62 °F 60 °F 83 °F (2010)
Min Temperature 28 °F 38 °F 19 °F (1973)
Degree Days  
Heating Degree Days 20 16  
Month to date heating degree days 306  
Since 1 July heating degree days 613  
Cooling Degree Days 0 0  
Month to date cooling degree days 4  
Year to date cooling degree days 2587  
Moisture  
Dew Point 27 °F    
Average Humidity 62    
Maximum Humidity 94    
Minimum Humidity 15    
Precipitation  
Precipitation 0.00 in 0.14 in 2.84 in (1991)
Month to date precipitation 3.09  
Year to date precipitation 47.60  
Snow  
Snow 0.00 in - - ()
Month to date snowfall  
Since 1 July snowfall  
Snow Depth -    
Sea Level Pressure  
Sea Level Pressure 30.44 in    
Wind  
Wind Speed 2 mph (NW)    
Max Wind Speed 9 mph    
Max Gust Speed -    
Visibility 10 miles    
Events      
T = Trace of Precipitation, MM = Missing Value Source: NWS Daily Summary

Daily Weather History Graph

Daily Weather History Graph

Search for Another Location

Airport or City:

Trip Planner

Search our weather history database for the weather conditions in past years. The results will help you decide how hot, cold, wet, or windy it might be!

Date:

Astronomy

Dec. 21, 2012 Rise Set
Actual Time 7:10 AM CST 5:18 PM CST
Civil Twilight 6:43 AM CST 5:45 PM CST
Nautical Twilight 6:13 AM CST 6:15 PM CST
Astronomical Twilight 5:43 AM CST 6:45 PM CST
Moon 12:51 PM CST (12/21) 1:14 AM CST (12/21)
Length of Visible Light 11h 02m
Length of Day
10h 08m
Waxing Gibbous, 65% of the Moon is Illuminated
Dec 21
Waxing Gibbous
Dec 28
Full
Jan 4
Last Quarter
Jan 11
New
Jan 18
First Quarter

Hourly Weather History & Observations

Time (CST) Temp. Windchill Dew Point Humidity Pressure Visibility Wind Dir Wind Speed Gust Speed Precip Events Conditions
12:15 AM 34.0 °F 31.0 °F 28.4 °F 80% 30.43 in 10.0 mi SW 3.5 mph - N/A   Clear
12:35 AM 32.7 °F - 28.2 °F 83% 30.44 in 10.0 mi Calm Calm - N/A   Clear
12:55 AM 32.7 °F - 28.6 °F 85% 30.44 in 10.0 mi Calm Calm - N/A   Clear
1:15 AM 33.4 °F - 27.7 °F 79% 30.44 in 10.0 mi Calm Calm - N/A   Clear
1:35 AM 33.3 °F - 28.0 °F 81% 30.44 in 10.0 mi Calm Calm - N/A   Clear
1:55 AM 33.6 °F - 25.3 °F 72% 30.44 in 10.0 mi Calm Calm - N/A   Clear
2:15 AM 32.7 °F - 26.8 °F 79% 30.45 in 10.0 mi Calm Calm - N/A   Clear
2:35 AM 32.4 °F - 25.7 °F 76% 30.45 in 10.0 mi Calm Calm - N/A   Clear
2:55 AM 32.0 °F - 27.3 °F 83% 30.44 in 10.0 mi Calm Calm - N/A   Clear
3:15 AM 31.6 °F - 27.7 °F 85% 30.44 in 10.0 mi Calm Calm - N/A   Clear
3:35 AM 30.6 °F - 27.1 °F 87% 30.45 in 10.0 mi Calm Calm - N/A   Clear
3:55 AM 30.4 °F - 27.3 °F 88% 30.44 in 10.0 mi Calm Calm - N/A   Clear
4:15 AM 30.0 °F - 27.0 °F 88% 30.44 in 10.0 mi Calm Calm - N/A   Clear
4:35 AM 30.4 °F - 27.1 °F 88% 30.44 in 10.0 mi Calm Calm - N/A   Clear
4:55 AM 30.2 °F - 27.1 °F 88% 30.45 in 10.0 mi Calm Calm - N/A   Clear
5:15 AM 30.0 °F - 27.3 °F 90% 30.46 in 10.0 mi Calm Calm - N/A   Clear
5:35 AM 29.7 °F - 27.1 °F 90% 30.46 in 10.0 mi Calm Calm - N/A   Clear
5:55 AM 29.5 °F - 26.4 °F 88% 30.47 in 10.0 mi Calm Calm - N/A   Clear
6:15 AM 29.7 °F - 26.6 °F 88% 30.47 in 10.0 mi Calm Calm - N/A   Clear
6:35 AM 28.9 °F - 26.6 °F 91% 30.49 in 10.0 mi Calm Calm - N/A   Clear
6:55 AM 29.1 °F - 26.6 °F 90% 30.49 in 10.0 mi Calm Calm - N/A   Clear
7:15 AM 30.4 °F - 26.8 °F 86% 30.50 in 10.0 mi Calm Calm - N/A   Clear
7:35 AM 30.9 °F - 26.4 °F 83% 30.50 in 10.0 mi Calm Calm - N/A   Clear
7:55 AM 31.6 °F - 27.9 °F 86% 30.50 in 10.0 mi Calm Calm - N/A   Clear
8:15 AM 34.0 °F - 28.0 °F 79% 30.50 in 10.0 mi Calm Calm - N/A   Clear
8:35 AM 37.4 °F - 26.6 °F 65% 30.52 in 10.0 mi Calm Calm - N/A   Clear
8:55 AM 39.7 °F 37.6 °F 25.9 °F 58% 30.52 in 10.0 mi West 3.5 mph - N/A   Clear
9:15 AM 41.7 °F 38.8 °F 23.9 °F 49% 30.52 in 10.0 mi West 4.6 mph - N/A   Clear
9:35 AM 43.7 °F 40.3 °F 23.0 °F 44% 30.53 in 10.0 mi WNW 5.8 mph - N/A   Clear
9:55 AM 46.0 °F 44.8 °F 21.2 °F 37% 30.52 in 10.0 mi West 3.5 mph - N/A   Clear
10:15 AM 48.4 °F - 20.1 °F 33% 30.52 in 10.0 mi West 3.5 mph - N/A   Clear
10:35 AM 50.9 °F - 19.4 °F 29% 30.52 in 10.0 mi Calm Calm - N/A   Clear
10:55 AM 53.1 °F - 19.2 °F 27% 30.51 in 10.0 mi WNW 5.8 mph - N/A   Clear
11:15 AM 55.2 °F - 17.4 °F 23% 30.50 in 10.0 mi NW 3.5 mph - N/A   Clear
11:35 AM 57.0 °F - 15.8 °F 20% 30.49 in 10.0 mi North 4.6 mph - N/A   Clear
11:55 AM 57.9 °F - 15.1 °F 19% 30.48 in 10.0 mi NW 6.9 mph - N/A   Clear
12:15 PM 59.5 °F - 12.6 °F 16% 30.47 in 10.0 mi North 5.8 mph - N/A   Clear
12:35 PM 60.4 °F - 12.4 °F 15% 30.45 in 10.0 mi NW 6.9 mph - N/A   Clear
12:55 PM 60.8 °F - 12.7 °F 15% 30.44 in 10.0 mi NNW 5.8 mph - N/A   Clear
1:15 PM 61.5 °F - 13.6 °F 15% 30.43 in 10.0 mi NNW 9.2 mph - N/A   Clear
1:35 PM 61.7 °F - 14.5 °F 16% 30.42 in 10.0 mi North 6.9 mph - N/A   Clear
1:55 PM 62.4 °F - 15.1 °F 16% 30.41 in 10.0 mi NNW 8.1 mph - N/A   Clear
2:15 PM 62.2 °F - 15.8 °F 16% 30.41 in 10.0 mi West 5.8 mph - N/A   Clear
2:35 PM 62.2 °F - 15.4 °F 16% 30.40 in 10.0 mi NW 5.8 mph - N/A   Clear
2:55 PM 62.1 °F - 17.1 °F 18% 30.39 in 10.0 mi NW 4.6 mph - N/A   Clear
3:15 PM 62.1 °F - 18.7 °F 19% 30.39 in 10.0 mi North 4.6 mph - N/A   Clear
3:35 PM 61.9 °F - 19.4 °F 19% 30.39 in 10.0 mi North 5.8 mph - N/A   Clear
3:55 PM 61.7 °F - 20.3 °F 20% 30.39 in 10.0 mi NNE 4.6 mph - N/A   Clear
4:15 PM 61.3 °F - 20.3 °F 21% 30.39 in 10.0 mi North 3.5 mph - N/A   Clear
4:35 PM 60.8 °F - 21.2 °F 22% 30.39 in 10.0 mi Calm Calm - N/A   Clear
4:55 PM 58.8 °F - 24.8 °F 27% 30.38 in 10.0 mi Calm Calm - N/A   Clear
5:15 PM 54.5 °F - 32.7 °F 44% 30.39 in 10.0 mi Calm Calm - N/A   Clear
5:35 PM 50.5 °F - 37.4 °F 61% 30.39 in 10.0 mi Calm Calm - N/A   Clear
5:55 PM 47.1 °F - 34.7 °F 62% 30.39 in 10.0 mi Calm Calm - N/A   Clear
6:15 PM 45.7 °F - 33.1 °F 61% 30.40 in 10.0 mi Calm Calm - N/A   Clear
6:35 PM 44.4 °F - 33.6 °F 66% 30.40 in 10.0 mi Calm Calm - N/A   Clear
6:55 PM 42.6 °F - 34.3 °F 73% 30.40 in 10.0 mi Calm Calm - N/A   Clear
7:15 PM 42.8 °F - 34.9 °F 74% 30.40 in 10.0 mi Calm Calm - N/A   Clear
7:35 PM 42.3 °F - 35.2 °F 76% 30.41 in 10.0 mi Calm Calm - N/A   Clear
7:55 PM 41.7 °F - 35.1 °F 77% 30.40 in 7.0 mi Calm Calm - N/A   Clear
8:15 PM 41.0 °F - 34.9 °F 79% 30.40 in 5.0 mi Calm Calm - N/A   Haze
8:35 PM 40.6 °F - 35.4 °F 82% 30.40 in 7.0 mi Calm Calm - N/A   Clear
8:55 PM 40.6 °F - 36.3 °F 85% 30.40 in 7.0 mi Calm Calm - N/A   Clear
9:15 PM 40.5 °F - 36.7 °F 86% 30.40 in 7.0 mi Calm Calm - N/A   Clear
9:35 PM 39.7 °F - 36.3 °F 88% 30.40 in 7.0 mi Calm Calm - N/A   Clear
9:55 PM 39.4 °F - 36.5 °F 89% 30.41 in 7.0 mi Calm Calm - N/A   Clear
10:15 PM 39.0 °F - 36.7 °F 91% 30.41 in 7.0 mi Calm Calm - N/A   Clear
10:35 PM 38.8 °F - 36.7 °F 92% 30.41 in 10.0 mi Calm Calm - N/A   Clear
10:55 PM 39.0 °F - 36.9 °F 92% 30.41 in 7.0 mi Calm Calm - N/A   Clear
11:15 PM 39.2 °F - 37.0 °F 92% 30.40 in 7.0 mi Calm Calm - N/A   Clear
11:35 PM 38.8 °F - 36.7 °F 92% 30.40 in 7.0 mi Calm Calm - N/A   Clear
11:55 PM 38.7 °F - 37.0 °F 94% 30.41 in 7.0 mi Calm Calm - N/A   Clear